Location: Newark
(49.1000°N, 0.4667°W)
Time: 09:49:05
(UTC+00:00)

BEESAT 3 - Pass Details

Date: 10 July 2020
Orbit: 482 x 522 km, 64.9° (Epoch: 10 August)

Event Time Altitude Azimuth Distance (km) Brightness Sun altitude
Rises 01:47:42 0° 325° (NW) 2,659 ? -15.3°
Reaches altitude 10° 01:51:12 10° 357° (N) 1,763 ? -15.0°
Maximum altitude 01:52:46 12° 21° (NNE) 1,635 ? -14.9°
Drops below altitude 10° 01:54:21 10° 44° (NE) 1,755 ? -14.8°
Sets 01:57:48 0° 77° (ENE) 2,630 ? -14.6°
